Weather History for Frederick, OK

Change the Weather History Date:

Monday, December 9, 2013

  Actual Average (KLTS) Record (KLTS)
Temperature  
Mean Temperature 20 °F -  
Max Temperature 26 °F 52 °F 75 °F (1996)
Min Temperature 14 °F 29 °F 10 °F (2005)
Degree Days  
Heating Degree Days 44    
Moisture  
Dew Point 15 °F    
Average Humidity 76    
Maximum Humidity 93    
Minimum Humidity 65    
Precipitation  
Precipitation 0.00 in - - ()
Sea Level Pressure  
Sea Level Pressure 30.30 in    
Wind  
Wind Speed 10 mph (North)    
Max Wind Speed 16 mph    
Max Gust Speed -    
Visibility 9 miles    
Events      
Averages and records for this station are not official NWS values.
T = Trace of Precipitation, MM = Missing Value Source: NWS Daily Summary

Daily Weather History Graph

Daily Weather History Graph

Search for Another Location

Airport:

Trip Planner

Search our weather history database for the weather conditions in past years. The results will help you decide how hot, cold, wet, or windy it might be!

Date:

Astronomy

Dec. 09, 2013 Rise Set
Actual Time 7:30 AM CST 5:26 PM CST
Civil Twilight 7:03 AM CST 5:53 PM CST
Nautical Twilight 6:31 AM CST 6:25 PM CST
Astronomical Twilight 6:01 AM CST 6:55 PM CST
Moon 12:39 PM CST (12/9) 12:03 AM CST (12/9)
Length of Visible Light 10h 50m
Length of Day
9h 55m
Waxing Crescent, 51% of the Moon is Illuminated
Dec 9
Waxing Crescent
Dec 17
Full
Dec 25
Last Quarter
Jan 1
New
Jan 7
First Quarter

Hourly Weather History & Observations

Time (CST) Temp. Windchill Dew Point Humidity Pressure Visibility Wind Dir Wind Speed Gust Speed Precip Events Conditions
12:53 AM 21.9 °F 11.0 °F 18.0 °F 85% 30.16 in 10.0 mi NE 10.4 mph - N/A   Clear
1:53 AM 19.0 °F 10.0 °F 15.1 °F 85% 30.19 in 8.0 mi ENE 6.9 mph - N/A   Clear
2:53 AM 18.0 °F 8.7 °F 15.1 °F 88% 30.18 in 7.0 mi NE 6.9 mph - N/A   Clear
3:53 AM 18.0 °F 11.1 °F 14.0 °F 84% 30.19 in 7.0 mi NE 4.6 mph - N/A   Clear
4:28 AM 17.6 °F 10.7 °F 15.8 °F 93% 30.16 in 8.0 mi NNE 4.6 mph - N/A   Mostly Cloudy
4:53 AM 21.9 °F 12.5 °F 17.1 °F 82% 30.21 in 9.0 mi NNE 8.1 mph - N/A   Overcast
5:53 AM 25.0 °F 12.6 °F 19.0 °F 78% 30.23 in 9.0 mi North 15.0 mph - N/A   Overcast
6:53 AM 25.0 °F 13.6 °F 19.0 °F 78% 30.26 in 8.0 mi NNE 12.7 mph - N/A   Overcast
7:53 AM 26.1 °F 15.6 °F 19.9 °F 78% 30.28 in 7.0 mi NNE 11.5 mph - N/A   Overcast
8:53 AM 25.0 °F 13.6 °F 19.0 °F 78% 30.31 in 8.0 mi North 12.7 mph - N/A   Overcast
9:53 AM 25.0 °F 13.6 °F 18.0 °F 75% 30.32 in 8.0 mi NNE 12.7 mph - N/A   Overcast
10:53 AM 25.0 °F 12.6 °F 17.1 °F 72% 30.31 in 9.0 mi NE 15.0 mph - N/A   Overcast
11:53 AM 25.0 °F 13.6 °F 17.1 °F 72% 30.30 in 10.0 mi North 12.7 mph - N/A   Overcast
12:06 PM 24.8 °F 13.4 °F 15.8 °F 69% 30.27 in 10.0 mi North 12.7 mph - N/A   Overcast
12:53 PM 25.0 °F 12.2 °F 16.0 °F 69% 30.29 in 10.0 mi North 16.1 mph - N/A   Overcast
1:53 PM 25.0 °F 12.6 °F 15.1 °F 66% 30.29 in 10.0 mi North 15.0 mph - N/A   Overcast
2:53 PM 24.1 °F 11.0 °F 14.0 °F 65% 30.29 in 10.0 mi North 16.1 mph - N/A   Overcast
3:53 PM 24.1 °F 11.0 °F 14.0 °F 65% 30.30 in 10.0 mi North 16.1 mph - N/A   Overcast
4:53 PM 24.1 °F 11.5 °F 14.0 °F 65% 30.32 in 10.0 mi North 15.0 mph - N/A   Overcast
5:53 PM 23.0 °F 9.6 °F 14.0 °F 68% 30.33 in 10.0 mi North 16.1 mph - N/A   Overcast
6:53 PM 23.0 °F 11.1 °F 14.0 °F 68% 30.37 in 10.0 mi North 12.7 mph - N/A   Overcast
7:53 PM 21.9 °F 10.4 °F 14.0 °F 72% 30.40 in 10.0 mi North 11.5 mph - N/A   Overcast
8:53 PM 18.0 °F 9.8 °F 12.0 °F 78% 30.42 in 10.0 mi North 5.8 mph - N/A   Clear
9:53 PM 16.0 °F 8.8 °F 10.0 °F 77% 30.43 in 10.0 mi NW 4.6 mph - N/A   Clear
10:53 PM 15.1 °F 7.7 °F 9.0 °F 77% 30.45 in 10.0 mi NW 4.6 mph - N/A   Clear
11:53 PM 14.0 °F 2.9 °F 8.1 °F 77% 30.46 in 10.0 mi NW 8.1 mph - N/A   Clear